TimeCST,TemperatureF,Dew PointF,Humidity,Sea Level PressureIn,VisibilityMPH,Wind Direction,Wind SpeedMPH,Gust SpeedMPH,PrecipitationIn,Events,Conditions,WindDirDegrees,DateUTC
12:53 AM,39.0,18.0,43,30.03,10.0,South,8.1,-,N/A,,Clear,190,2012-11-15 06:53:00
1:53 AM,36.0,19.0,50,30.04,10.0,Calm,Calm,-,N/A,,Clear,0,2012-11-15 07:53:00
2:53 AM,30.9,16.0,54,30.04,10.0,SSW,10.4,-,N/A,,Clear,210,2012-11-15 08:53:00
3:53 AM,33.1,14.0,46,30.04,10.0,West,9.2,-,N/A,,Clear,260,2012-11-15 09:53:00
4:53 AM,30.9,14.0,50,30.06,10.0,West,9.2,-,N/A,,Clear,280,2012-11-15 10:53:00
5:53 AM,34.0,14.0,44,30.09,10.0,NW,11.5,-,N/A,,Clear,310,2012-11-15 11:53:00
6:53 AM,36.0,17.1,46,30.11,10.0,NNW,15.0,-,N/A,,Clear,340,2012-11-15 12:53:00
7:53 AM,37.0,18.0,46,30.14,10.0,NNW,19.6,-,N/A,,Clear,340,2012-11-15 13:53:00
8:53 AM,42.1,19.0,40,30.17,10.0,North,19.6,26.5,N/A,,Clear,350,2012-11-15 14:53:00
9:53 AM,48.9,19.9,32,30.19,10.0,North,23.0,29.9,N/A,,Clear,10,2012-11-15 15:53:00
10:53 AM,53.1,21.9,30,30.21,10.0,North,24.2,32.2,N/A,,Clear,10,2012-11-15 16:53:00
11:53 AM,57.9,24.1,27,30.20,10.0,North,21.9,28.8,N/A,,Clear,10,2012-11-15 17:53:00
12:53 PM,61.0,25.0,25,30.18,10.0,NNE,24.2,28.8,N/A,,Clear,20,2012-11-15 18:53:00
1:53 PM,62.1,24.1,23,30.17,10.0,NNE,19.6,28.8,N/A,,Clear,30,2012-11-15 19:53:00
2:53 PM,63.0,25.0,24,30.18,10.0,NNE,20.7,28.8,N/A,,Clear,20,2012-11-15 20:53:00
3:53 PM,62.1,25.0,24,30.19,10.0,NNE,19.6,-,N/A,,Clear,20,2012-11-15 21:53:00
4:53 PM,60.1,21.9,23,30.23,10.0,NE,13.8,-,N/A,,Clear,40,2012-11-15 22:53:00
5:53 PM,54.0,23.0,30,30.28,10.0,NE,12.7,-,N/A,,Clear,50,2012-11-15 23:53:00
6:53 PM,50.0,23.0,35,30.31,10.0,NE,9.2,-,N/A,,Clear,40,2012-11-16 00:53:00
7:53 PM,45.0,23.0,42,30.34,10.0,NNE,9.2,-,N/A,,Clear,30,2012-11-16 01:53:00
8:53 PM,41.0,23.0,49,30.35,10.0,NNE,8.1,-,N/A,,Clear,20,2012-11-16 02:53:00
9:53 PM,37.0,23.0,57,30.35,10.0,North,6.9,-,N/A,,Clear,10,2012-11-16 03:53:00
10:53 PM,37.0,25.0,62,30.36,10.0,North,5.8,-,N/A,,Clear,350,2012-11-16 04:53:00
11:53 PM,34.0,24.1,67,30.36,10.0,NNW,6.9,-,N/A,,Clear,340,2012-11-16 05:53:00